When you browse on this site, cookies collect data to enhance your experience and personalize the content and advertising you see.
Visit our Privacy Policy to learn more. By continuing to use the site, you agree to this use of cookies and data.
  • In United Kingdom
  • List of Countries
  • For 7 days
  • Water Temperature
  • Weather Map
  • Weather Widgets
  • user-avatar
    Login

    Hourly Weather Szczescie

    Today, 5 April, Sunday

    Time Temperature Precipitation Wind Pressure Humidity
    00:00 +3°C° 0 mm 0 mps 758 mmHg 66%
    01:00 +3°C° 0 mm 1 mps 758 mmHg 67%
    02:00 +3°C° 0 mm 1 mps 758 mmHg 70%
    03:00 +3°C° 0 mm 1 mps 758 mmHg 72%
    04:00 +2°C° 0 mm 1 mps 759 mmHg 74%
    05:00 +3°C° 0 mm 1 mps 759 mmHg 71%
    06:00 +4°C° 0 mm 1 mps 759 mmHg 68%
    07:00 +5°C° 0 mm 1 mps 760 mmHg 64%
    08:00 +6°C° 0 mm 2 mps 760 mmHg 57%
    09:00 +8°C° 0 mm 2 mps 761 mmHg 51%
    10:00 +9°C° 0 mm 3 mps 761 mmHg 45%
    11:00 +10°C° 0 mm 3 mps 761 mmHg 42%
    12:00 +11°C° 0 mm 3 mps 761 mmHg 39%
    13:00 +11°C° 0 mm 3 mps 760 mmHg 36%
    14:00 +11°C° 0 mm 3 mps 760 mmHg 37%
    15:00 +11°C° 0 mm 3 mps 760 mmHg 37%
    16:00 +11°C° 0 mm 3 mps 760 mmHg 38%
    17:00 +10°C° 0 mm 3 mps 760 mmHg 43%
    18:00 +8°C° 0 mm 3 mps 760 mmHg 48%
    19:00 +7°C° 0 mm 3 mps 760 mmHg 53%
    20:00 +5°C° 0 mm 3 mps 760 mmHg 55%
    21:00 +4°C° 0 mm 3 mps 760 mmHg 56%
    22:00 +4°C° 0 mm 3 mps 761 mmHg 58%
    23:00 +3°C° 0 mm 3 mps 761 mmHg 59%

    Tomorrow, 6 April, Monday

    Time Temperature Precipitation Wind Pressure Humidity
    00:00 +3°C° 0 mm 3 mps 760 mmHg 60%
    01:00 +3°C° 0 mm 3 mps 760 mmHg 60%
    02:00 +2°C° 0 mm 3 mps 760 mmHg 60%
    03:00 +2°C° 0 mm 3 mps 760 mmHg 61%
    04:00 +1°C° 0 mm 4 mps 760 mmHg 61%
    05:00 +3°C° 0 mm 4 mps 760 mmHg 58%
    06:00 +3°C° 0 mm 5 mps 760 mmHg 56%
    07:00 +4°C° 0 mm 6 mps 760 mmHg 54%
    08:00 +7°C° 0 mm 6 mps 760 mmHg 50%
    09:00 +9°C° 0 mm 6 mps 760 mmHg 47%
    10:00 +11°C° 0 mm 6 mps 760 mmHg 43%
    11:00 +13°C° 0 mm 5 mps 760 mmHg 42%
    12:00 +14°C° 0 mm 5 mps 760 mmHg 41%
    13:00 +15°C° 0 mm 5 mps 760 mmHg 39%
    14:00 +15°C° 0 mm 5 mps 759 mmHg 40%
    15:00 +15°C° 0 mm 4 mps 759 mmHg 41%
    16:00 +15°C° 0 mm 4 mps 759 mmHg 42%
    17:00 +13°C° 0 mm 4 mps 759 mmHg 48%
    18:00 +12°C° 0 mm 4 mps 759 mmHg 53%
    19:00 +10°C° 0 mm 3 mps 759 mmHg 59%
    20:00 +9°C° 0 mm 3 mps 759 mmHg 60%
    21:00 +8°C° 0 mm 3 mps 759 mmHg 62%
    22:00 +7°C° 0 mm 3 mps 760 mmHg 63%
    23:00 +7°C° 0 mm 3 mps 759 mmHg 64%

    Day after tomorrow, 7 April, Tuesday

    Time Temperature Precipitation Wind Pressure Humidity
    00:00 +5°C° 0 mm 3 mps 759 mmHg 65%
    01:00 +5°C° 0 mm 3 mps 759 mmHg 65%
    02:00 +5°C° 0 mm 2 mps 759 mmHg 66%
    03:00 +5°C° 0 mm 2 mps 759 mmHg 66%
    04:00 +5°C° 0 mm 2 mps 760 mmHg 66%
    05:00 +6°C° 0 mm 2 mps 760 mmHg 64%
    06:00 +8°C° 0 mm 1 mps 760 mmHg 63%
    07:00 +9°C° 0 mm 1 mps 760 mmHg 61%
    08:00 +10°C° 0 mm 2 mps 760 mmHg 54%
    09:00 +13°C° 0 mm 2 mps 760 mmHg 47%
    10:00 +15°C° 0 mm 2 mps 760 mmHg 41%
    11:00 +16°C° 0 mm 3 mps 760 mmHg 38%
    12:00 +17°C° 0 mm 3 mps 759 mmHg 36%
    13:00 +18°C° 0 mm 3 mps 759 mmHg 34%
    14:00 +18°C° 0 mm 4 mps 759 mmHg 34%
    15:00 +18°C° 0 mm 4 mps 759 mmHg 34%
    16:00 +18°C° 0 mm 4 mps 758 mmHg 34%
    17:00 +16°C° 0 mm 3 mps 758 mmHg 39%
    18:00 +13°C° 0 mm 3 mps 758 mmHg 44%
    19:00 +12°C° 0 mm 2 mps 758 mmHg 49%
    20:00 +10°C° 0 mm 2 mps 758 mmHg 50%
    21:00 +10°C° 0 mm 2 mps 758 mmHg 51%
    22:00 +9°C° 0 mm 2 mps 759 mmHg 51%
    23:00 +9°C° 0 mm 2 mps 759 mmHg 54%

    8 April, Wednesday

    Time Temperature Precipitation Wind Pressure Humidity
    00:00 +8°C° 0 mm 2 mps 759 mmHg 56%
    01:00 +8°C° 0 mm 2 mps 759 mmHg 59%
    02:00 +7°C° 0 mm 2 mps 759 mmHg 63%
    03:00 +8°C° 0 mm 1 mps 759 mmHg 67%
    04:00 +8°C° 0 mm 1 mps 759 mmHg 71%
    05:00 +9°C° 0 mm 1 mps 759 mmHg 70%
    06:00 +10°C° 0 mm 1 mps 759 mmHg 68%
    07:00 +11°C° 0 mm 1 mps 759 mmHg 66%
    08:00 +13°C° 0 mm 1 mps 758 mmHg 62%
    09:00 +14°C° 0 mm 0 mps 758 mmHg 57%
    10:00 +16°C° 0 mm 0 mps 758 mmHg 52%
    11:00 +17°C° 0 mm 0 mps 758 mmHg 49%
    12:00 +18°C° 0 mm 0 mps 757 mmHg 46%
    13:00 +21°C° 0 mm 1 mps 757 mmHg 43%
    14:00 +19°C° 0 mm 0 mps 756 mmHg 43%
    15:00 +18°C° 0 mm 0 mps 756 mmHg 43%
    16:00 +18°C° 0 mm 0 mps 756 mmHg 43%
    17:00 +19°C° 0 mm 1 mps 755 mmHg 47%
    18:00 +16°C° 0 mm 1 mps 755 mmHg 51%
    19:00 +15°C° 0 mm 1 mps 755 mmHg 54%
    20:00 +14°C° 0 mm 1 mps 755 mmHg 56%
    21:00 +13°C° 0 mm 1 mps 754 mmHg 58%
    22:00 +13°C° 0 mm 1 mps 754 mmHg 60%
    23:00 +12°C° 0 mm 1 mps 754 mmHg 61%

    9 April, Thursday

    Time Temperature Precipitation Wind Pressure Humidity
    00:00 +11°C° 0 mm 1 mps 754 mmHg 62%
    01:00 +11°C° 0 mm 1 mps 753 mmHg 63%
    02:00 +10°C° 0 mm 1 mps 753 mmHg 63%
    03:00 +9°C° 0 mm 2 mps 753 mmHg 64%
    04:00 +9°C° 0 mm 2 mps 753 mmHg 64%
    05:00 +9°C° 0 mm 2 mps 753 mmHg 61%
    06:00 +10°C° 0 mm 2 mps 752 mmHg 59%
    07:00 +12°C° 0 mm 2 mps 752 mmHg 56%
    08:00 +13°C° 0 mm 3 mps 752 mmHg 49%
    09:00 +16°C° 0 mm 3 mps 752 mmHg 42%
    10:00 +18°C° 0 mm 3 mps 752 mmHg 35%
    11:00 +19°C° 0 mm 4 mps 751 mmHg 34%
    12:00 +19°C° 0 mm 4 mps 751 mmHg 33%
    13:00 +20°C° 0 mm 4 mps 750 mmHg 32%
    14:00 +20°C° 0 mm 4 mps 750 mmHg 33%
    15:00 +19°C° 0 mm 4 mps 749 mmHg 35%
    16:00 +19°C° 0 mm 4 mps 749 mmHg 36%
    17:00 +17°C° 0 mm 4 mps 749 mmHg 41%
    18:00 +14°C° 0 mm 4 mps 749 mmHg 47%
    19:00 +13°C° 0 mm 3 mps 749 mmHg 52%
    20:00 +12°C° 0 mm 3 mps 749 mmHg 55%
    21:00 +12°C° 0 mm 4 mps 749 mmHg 57%
    22:00 +11°C° 0 mm 4 mps 749 mmHg 60%
    23:00 +11°C° 0 mm 4 mps 749 mmHg 69%

    10 April, Friday

    Time Temperature Precipitation Wind Pressure Humidity
    00:00 +10°C° 0 mm 3 mps 750 mmHg 78%
    01:00 +10°C° 0 mm 3 mps 750 mmHg 87%
    02:00 +9°C° 0 mm 3 mps 750 mmHg 87%
    03:00 +8°C° 0 mm 3 mps 750 mmHg 87%
    04:00 +7°C° 0 mm 3 mps 751 mmHg 86%
    05:00 +8°C° 0 mm 3 mps 751 mmHg 84%
    06:00 +7°C° 0 mm 4 mps 751 mmHg 82%
    07:00 +8°C° 0 mm 4 mps 752 mmHg 79%
    08:00 +10°C° 0 mm 4 mps 752 mmHg 71%
    09:00 +11°C° 0 mm 4 mps 752 mmHg 62%
    10:00 +12°C° 0 mm 4 mps 753 mmHg 54%
    11:00 +12°C° 0 mm 4 mps 753 mmHg 52%
    12:00 +12°C° 0 mm 4 mps 753 mmHg 50%
    13:00 +12°C° 0 mm 4 mps 753 mmHg 48%
    14:00 +12°C° 0 mm 3 mps 753 mmHg 46%
    15:00 +12°C° 0 mm 3 mps 753 mmHg 44%
    16:00 +13°C° 0 mm 3 mps 752 mmHg 43%
    17:00 +12°C° 0 mm 2 mps 752 mmHg 47%
    18:00 +10°C° 0 mm 2 mps 752 mmHg 50%
    19:00 +9°C° 0 mm 1 mps 753 mmHg 54%
    20:00 +8°C° 0 mm 1 mps 753 mmHg 55%
    21:00 +8°C° 0 mm 1 mps 753 mmHg 56%
    22:00 +7°C° 0 mm 1 mps 753 mmHg 58%
    23:00 +7°C° 0 mm 1 mps 753 mmHg 59%
    Show more